TimeEST,TemperatureF,Dew PointF,Humidity,Sea Level PressureIn,VisibilityMPH,Wind Direction,Wind SpeedMPH,Gust SpeedMPH,PrecipitationIn,Events,Conditions,WindDirDegrees,DateUTC
12:55 AM,23.0,14.0,68,30.35,10.0,North,8.1,-,N/A,,Overcast,350,2013-02-21 05:55:00
1:55 AM,21.9,14.0,72,30.37,10.0,North,5.8,-,N/A,,Overcast,360,2013-02-21 06:55:00
2:55 AM,21.9,14.0,72,30.37,10.0,North,8.1,-,N/A,,Overcast,360,2013-02-21 07:55:00
3:55 AM,23.0,15.1,72,30.36,10.0,North,5.8,-,N/A,,Overcast,360,2013-02-21 08:55:00
4:55 AM,23.0,16.0,74,30.36,10.0,NNW,6.9,-,N/A,,Overcast,340,2013-02-21 09:55:00
5:55 AM,24.1,16.0,71,30.38,9.0,North,8.1,-,0.00,Snow,Light Snow,350,2013-02-21 10:55:00
6:55 AM,24.1,17.1,75,30.40,10.0,North,8.1,-,0.00,,Overcast,350,2013-02-21 11:55:00
7:37 AM,24.8,17.6,74,30.34,10.0,North,9.2,19.6,N/A,,Overcast,10,2013-02-21 12:37:00
7:55 AM,24.1,17.1,75,30.37,10.0,North,15.0,-,N/A,,Overcast,10,2013-02-21 12:55:00
8:55 AM,24.1,17.1,75,30.39,10.0,NNE,9.2,-,N/A,,Overcast,30,2013-02-21 13:55:00
9:55 AM,24.1,16.0,71,30.39,10.0,NNE,6.9,-,N/A,,Overcast,30,2013-02-21 14:55:00
10:29 AM,24.8,15.8,69,30.36,10.0,Variable,4.6,-,N/A,,Overcast,0,2013-02-21 15:29:00
10:55 AM,24.1,17.1,75,30.39,10.0,ENE,6.9,-,N/A,,Overcast,70,2013-02-21 15:55:00
11:55 AM,25.0,16.0,69,30.40,10.0,ENE,8.1,-,N/A,,Overcast,70,2013-02-21 16:55:00
12:55 PM,26.1,16.0,66,30.40,10.0,NE,4.6,-,N/A,,Overcast,50,2013-02-21 17:55:00
1:55 PM,26.1,16.0,66,30.37,10.0,East,10.4,-,N/A,,Overcast,100,2013-02-21 18:55:00
2:55 PM,27.0,17.1,66,30.32,10.0,East,12.7,-,N/A,,Overcast,90,2013-02-21 19:55:00
3:55 PM,26.1,16.0,66,30.30,10.0,ENE,12.7,-,N/A,,Overcast,60,2013-02-21 20:55:00
4:55 PM,25.0,15.1,66,30.33,10.0,East,12.7,-,N/A,,Mostly Cloudy,80,2013-02-21 21:55:00
5:09 PM,24.8,15.8,69,30.30,10.0,ENE,12.7,-,N/A,,Scattered Clouds,70,2013-02-21 22:09:00
5:55 PM,24.1,12.9,62,30.33,10.0,East,9.2,-,N/A,,Partly Cloudy,80,2013-02-21 22:55:00
6:55 PM,23.0,12.9,65,30.32,10.0,East,11.5,-,N/A,,Clear,80,2013-02-21 23:55:00
7:55 PM,21.9,12.0,66,30.30,10.0,East,13.8,19.6,N/A,,Clear,90,2013-02-22 00:55:00
8:55 PM,21.9,12.0,66,30.28,10.0,East,12.7,19.6,N/A,,Clear,80,2013-02-22 01:55:00
9:55 PM,21.0,12.0,68,30.27,10.0,East,12.7,-,N/A,,Clear,80,2013-02-22 02:55:00
10:55 PM,19.9,12.0,71,30.22,10.0,East,15.0,-,N/A,,Clear,80,2013-02-22 03:55:00
11:55 PM,19.9,12.9,74,30.19,10.0,East,18.4,28.8,N/A,,Clear,90,2013-02-22 04:55:00